COSMOS 2251 DEB, 35661

Orbit data source: Space-Track

COSMOS 2251 DEB, 35661 is space debris in LEO originally from a launch on Wed, 16 Jun 1993 UTC launched from the Plesetsk Missile And Space Complex (PKMTR). The debris from Iridium 33, an American commercial communications satellite, has been tracked extensively since its accidental collision with the defunct Russian satellite Cosmos 2251 in 2009. This event, occurring at high speed in low Earth orbit (LEO), generated thousands of pieces of space debris, significantly increasing the risk of further collisions. The Iridium 33 debris cloud has impacted space traffic management and orbital debris mitigation strategies, making it a subject of ongoing study in space situational awareness.

Loading next visibility...
Identifier
35661, 1993-036APC
Orbit
LEO
Country
Flag of CISCIS
Related business
Manufacturer
Unknown
Mission
Spacecraft
Bus & Motor
Unknown
Mass
Unknown
Launch date (UTC)
1993-06-16 (33 years ago)
Launch vehicle
Unknown
Launch site
Plesetsk Missile And Space Complex (PKMTR)
Object type
Payload
Rocket body
Debris
Shape & HBR
Unknown shape, 0.1 m
Radar Cross Section
Small (<0.1 m²)

Expand to show TLE details & history
Last TLE update: 2 days ago

TLE from 2 days ago
0 COSMOS 2251 DEB
1 35661U 93036APC 26226.96002547  .00002263  00000-0  22562-3 0  9996
2 35661  74.0136 309.5963 0085146 349.2277  10.7076 14.89562968915168
Epoch: 2026-08-14T23:02Z
TLE epoch observation values (Epoch: 2026-08-14T23:02:26.200Z)
Latitude
-0.00005°
Longitude
0.60936°
Altitude
543.607 km
Speed
7.622 km/s
True Right ascension
20h 38m 23s
True Declination
0° 00' 00"
Sunlit
Object was in full shadow at epoch
Visualization orbit readout
Latitude
Unknown
Longitude
Unknown
Altitude
Unknown
Speed
Unknown
Apparent Right ascension
Unknown
Apparent Declination
Unknown
Sunlit
N/A
Visualization observer readout
Local Sidereal Time
17:11:14
Azimuth
Unknown
Elevation
Unknown
Doppler factor
Unknown
Orbital elements
Apogee altitude
656.256 km
Perigee altitude
537.478 km
Semi-major axis
6,975.004 km
Eccentricity
0.00851
Inclination
74.0136°
RAAN
309.5963°
Arg. of periapsis
349.2277°
True anomaly
10.8908°
Mean anomaly
10.7076°
Eccentric anomaly
10.79901°
Mean motion
3.72586 °/min
Orbital period
96.62 mins
BSTAR
0.00022562
Loading maneuver chart data...
Computing Atmospheric mass density...

Documentation

Showing up to 5 results
|